Regional Weather Roundup
Issued by NWS Columbia, SC

Home | Current Version | Previous Version | Text Only | Print | Product List | Glossary On
Versions: 1 2 3 4 5 6 7 8 9 10 11 12 13 14 15 16 17 18 19 20 21 22 23 24 25 26 27 28 29 30 31 32 33 34 35 36 37 38 39 40 41 42 43 44 45 46 47 48 49 50
155
ASUS42 KCAE 062210
RWRCAE
REGIONAL WEATHER ROUNDUP
NATIONAL WEATHER SERVICE COLUMBIA SC
500 PM EST TUE DEC 06 2016

NOTE: "FAIR" INDICATES FEW OR NO CLOUDS BELOW 12,000 FEET WITH NO
SIGNIFICANT WEATHER AND/OR OBSTRUCTIONS TO VISIBILITY.

NOT ALL STATIONS ARE QUALITY CONTROLLED BY THE NATIONAL
WEATHER SERVICE. USE DATA WITH CAUTION...ESPECIALLY
DEWPOINT OBSERVATIONS.

SCZ001>056-GAZ040-063>065-077-062300-
...UPSTATE SOUTH CAROLINA...

CITY           SKY/WX    TMP DP  RH WIND       PRES   REMARKS
ANDERSON       CLOUDY    48  44  86 S3        29.80R
LIBERTY        CLOUDY    47  45  92 S3        29.79R
SPARTANBURG    CLOUDY    45  41  87 CALM      29.79R
CLEMSON        CLOUDY    49  44  83 VRB5      29.80S
GREENVILLE     CLOUDY    48  43  82 CALM      29.80R
GREENWOOD      CLOUDY    47  44  90 CALM      29.82R
GREER          CLOUDY    47  42  83 N5        29.79R
ROCK HILL      CLOUDY    47  44  90 N5        29.78R
CHESTER        CLOUDY    45  45 100 CALM      29.79S
LAURENS          N/A     45  45 100 CALM      29.80S


...CENTRAL SOUTH CAROLINA...

CITY           SKY/WX    TMP DP  RH WIND       PRES   REMARKS
COLUMBIA APT   CLOUDY    51  49  92 NW6       29.80R
COLUMBIA OWENS CLOUDY    51  48  89 N5        29.80R
ORANGEBURG     CLOUDY    54  52  93 NW7       29.77R
NEWBERRY       CLOUDY    46  45  93 CALM      29.83R
AIKEN          CLOUDY    50  48  93 NW3       29.83R
MANNING        CLOUDY    52  50  93 NW9       29.77R
LANCASTER      CLOUDY    46  46 100 CALM      29.79R
WINNSBORO      CLOUDY    46  46 100 NW6       29.79R


...EASTERN AND COASTAL SOUTH CAROLINA...

CITY           SKY/WX    TMP DP  RH WIND       PRES   REMARKS
MYRTLE BEACH   MOCLDY    64  61  88 W15       29.72R
CONWAY         CLOUDY    55  55 100 W7        29.73R FOG
MARION         CLOUDY    50  50 100 NW8       29.75R FOG
HARTSVILLE     CLOUDY    48  46  93 CALM      29.75R
FLORENCE       CLOUDY    52  51  97 NW7       29.75R
CHARLESTON APT PTCLDY    71  67  87 SW7       29.71R
WALTERBORO     MOCLDY    72  72 100 W10G16    29.75R
BEAUFORT       PTCLDY    75  65  70 W9        29.72R
HILTON HEAD    PTCLDY    75  70  83 S7        29.73R


...EASTERN GEORGIA...

CITY           SKY/WX    TMP DP  RH WIND       PRES   REMARKS
AUGUSTA BUSH F CLOUDY    57  53  86 N10       29.80R
AUGUSTA DANIEL CLOUDY    53  50  89 N8        29.81R
THOMSON        CLOUDY    54  54 100 CALM      29.85R
WASHINGTON     CLOUDY    52  52 100 CALM      29.82R
CLAXTON        FAIR      75  58  54 SW9G17    29.75R
SYLVANIA       FAIR     N/A N/A N/A NW8       29.76R
SAVANNAH       FAIR      77  59  53 W12       29.73R


...SOUTHERN NORTH CAROLINA...

CITY           SKY/WX    TMP DP  RH WIND       PRES   REMARKS
CHARLOTTE      CLOUDY    46  42  86 N6        29.79R
MONROE         CLOUDY    47  43  86 NW5       29.77R
WADESBORO      CLOUDY    48  45  90 NW6       29.75R
ROCKINGHAM     CLOUDY    48  48 100 N7        29.74R
RUTHERFORDTON  CLOUDY    46  43  88 N3        29.79R
ASHEVILLE      MOCLDY    46  40  79 CALM      29.77R

$$




USA.gov is the U.S. government's official web portal to all federal, state and local government web resources and services.